Preview of NWS' New Version of Forecast
This preview is not operational and should not be used for support decisions.

Regional Weather Roundup (RWR)

Issued by National Weather Service (NWS)

                            
000
ASUS45 KCYS 201510
RWRWY 

WYOMING REGIONAL WEATHER ROUNDUP
NATIONAL WEATHER SERVICE CHEYENNE WY
800 AM MST WED FEB 20 2019

NOTE:  "FAIR" INDICATES FEW OR NO CLOUDS BELOW 12,000 FEET
WITH NO SIGNIFICANT WEATHER AND/OR OBSTRUCTIONS TO VISIBILITY.

WYZ001-201600-
...YELLOWSTONE NATIONAL PARK...
  
CITY           SKY/WX    TMP DP  RH WIND       PRES   REMARKS
LK YELLOWSTONE   N/A     -3  -7  82 CALM      29.49S                  
W YELLOWSTONE  NOT AVBL                                               

$$
WYZ002>013-054>058-071-098>099-201600-
...NORTHERN WYOMING...
  
CITY           SKY/WX    TMP DP  RH WIND       PRES   REMARKS
JACKSON        LGT SNOW   1  -4  79 N6        29.59R VSB 3/4 WCI -10  
CODY           PTCLDY     7  -2  66 CALM      29.54R                  
GREYBULL       CLOUDY    -1  -5  82 CALM      29.64R                  
WORLAND        CLEAR     -2  -6  83 CALM      29.62R                  
SHERIDAN       MOCLDY     4  -2  76 SE3       29.56R                  
BUFFALO        PTCLDY    14  -1  51 SW7       29.50R WCI   4          
GILLETTE       SUNNY      9   0  67 W14       29.53S WCI  -7          
HULETT         FAIR       3   0  85 MISG      29.55R                  
NEWCASTLE        N/A      1  -2  85 NW8       29.56R WCI -12          

$$
WYZ014>020-022>026-101>103-201600-
...CENTRAL WYOMING...
  
CITY           SKY/WX    TMP DP  RH WIND       PRES   REMARKS
BIG PINEY      CLOUDY   -12 -17  78 CALM      29.56R                  
PINEDALE       MOCLDY   -15 -22  70 NW6       29.56S WCI -29          
DUBOIS         FAIR       3  -6  66 NW18      29.45R WCI -17          
LANDER         CLEAR      7  -5  57 SW3       29.54R                  
RIVERTON       PTCLDY     7  -4  60 CALM      29.55R                  
CASPER         SUNNY      8  -2  63 SW20      29.57R WCI -11          
DOUGLAS        SUNNY     12   2  64 NW13      29.56R WCI  -3          

$$
WYZ021-027>030-104>119-201600-
...SOUTHERN WYOMING...
  
CITY           SKY/WX    TMP DP  RH WIND       PRES   REMARKS
EVANSTON       PTCLDY     5   0  79 SW22      29.58R WCI -16          
KEMMERER       CLEAR      7   1  78 SW12      29.54R WCI  -9          
FORT BRIDGER   MOCLDY    10   3  72 W24       29.60R WCI -10          
ROCK SPRINGS   CLOUDY     8   1  73 W17       29.58R WCI -10          
DIXON          LGT SNOW  10   3  73 S21G28    29.67R WCI -10          
RAWLINS        CLOUDY     9   4  80 SW22      29.56R WCI -11          
SARATOGA       CLOUDY    10   3  72 SW16      29.57R WCI  -7          
LARAMIE        SUNNY      5  -4  66 CALM      29.49R                  
CHEYENNE       SUNNY     12  -2  53 W10G20    29.51R WCI  -1          
TORRINGTON     SUNNY      3   0  87 CALM      29.58R                  
PINE BLUFFS    CLOUDY     9   1  72 W7        29.56R WCI  -3          

$$